Showing default

FENGYUN 1C, 25730

Orbit data source: Space-Track

FENGYUN 1C, 25730 is a payload satellite owned by CNMSC (CN) in SSO that was launched on Mon, 10 May 1999 UTC via a CHANG ZHENG 4B launch vehicle from the Taiyaun Space Center, China (TSC). Payload-class satellites include a variety of spacecraft equipped with specific instruments for various scientific and technological missions. These include communications satellites like Starlink; space stations such as the ISS; scientific satellites like the Hubble; Earth observation satellites from companies like Planet Labs, Umbra, and HawkEye 360; GPS; miniature CubeSats for education and research; and military/defense satellites.

Loading next visibility...
Identifier
25730, 1999-025A
Orbit
SSO
Country
Flag of CNCN / PRC
Related business
Manufacturer
SISE
Mission
Non-operational Civil Imaging
Bus & Motor
FY-1, Unknown motor
Mass
958 kg wet, ~958 kg dry
Launch date (UTC)
1999-05-10 (27 years ago)
Launch vehicle
CHANG ZHENG 4B
Launch site
Taiyaun Space Center, China (TSC)
Object type
Payload
Rocket body
Debris
Shape & HBR
Box + 2 Pan, 4.3 m
Radar Cross Section
5.659 m², Medium (>0.1 m² and < 1m²)

Expand to show TLE details & history
Last TLE update: 20 hours ago

TLE from 20 hours ago
0 FENGYUN 1C
1 25730U 99025A   25347.16463831  .00004151  00000-0  17551-2 0  9997
2 25730  98.8840  53.2026 0010660  67.1932 293.0372 14.26055382371435
Epoch: 2025-12-13T03:57Z
TLE epoch observation values (Epoch: 2025-12-13T03:57:04.749Z)
Latitude
-0.00002°
Longitude
-88.16302°
Altitude
804.873 km
Speed
7.453 km/s
True Right ascension
03h 32m 48s
True Declination
0° 00' 00"
Sunlit
Object was in full shadow at epoch
Visualization orbit readout
Latitude
Unknown
Longitude
Unknown
Altitude
Unknown
Speed
Unknown
Apparent Right ascension
Unknown
Apparent Declination
Unknown
Sunlit
N/A
Visualization observer readout
Local Sidereal Time
22:38:22
Azimuth
Unknown
Elevation
Unknown
Doppler factor
Unknown
Orbital elements
Apogee altitude
809.76 km
Perigee altitude
794.451 km
Semi-major axis
7,180.242 km
Eccentricity
0.00107
Inclination
98.884°
RAAN
53.2026°
Arg. of periapsis
67.1932°
True anomaly
292.92473°
Mean anomaly
293.0372°
Eccentric anomaly
292.98097°
Mean motion
3.56726 °/min
Orbital period
100.92 mins
BSTAR
0.0017551
Loading maneuver chart data...
Computing Atmospheric mass density...

Documentation

Showing up to 5 results
|